Find Starlink 32329

NORAD ID: 62736 Int'l Des: 2025-014 Owner: SPXS Country: US Constellation: starlink operational
LEOCIRCULAR

Live-Position

3D-Globus wird geladen...

Über Starlink 32329

Beschreibung wird geladen...

Nächste Überflüge

Passes for default location (London). Set your location on the main map for personalized predictions.

Höhenverlauf

Loading altitude history...

Zweizeiliger Elementsatz

1 62736U 25014B 26121.75335684 .00023062 00000-0 84406-3 0 9997
2 62736 43.0001 214.6370 0001882 283.3282 76.7360 15.27614499 71379
Epoch: 1. Mai 2026 • Age: 23 hours

Aktueller Status

Höhe 490.5 km
Geschwindigkeit 7.62 km/s
Subsatellitenpunkt -32.22°S, 45.34°E
Startdatum 21. Jan. 2025
Alter 1.2 years
Typ internet

Technische Details

Klassifizierung Payload
Masse 730.00 kg
Trockenmasse 700.00 kg
Gesamtmasse 730.00 kg
Länge 0.30 m
Durchmesser 4.10 m
Spannweite 29.00 m
Form Box + pan
Hersteller SPXS
Bus-Typ Starlink V2M
Phasenstatus In Orbit
Besitzer/Staat SPXS/US

Most Searched